Regional Weather Roundup
Issued by NWS

Home | Current Version | Previous Version | Graphics & Text | Print | Product List | Glossary On
Versions: 1 2 3 4 5 6 7 8 9 10 11 12 13 14 15 16 17 18 19 20 21 22 23 24 25 26 27 28 29 30 31 32 33 34 35 36 37 38 39 40 41 42 43 44 45 46 47 48 49 50
000
ASUS45 KTFX 272219
RWRMT
MONTANA HOURLY WEATHER ROUNDUP
NATIONAL WEATHER SERVICE GREAT FALLS MT
319 PM MST SAT DEC 27 2014

NOTE: "FAIR" INDICATES FEW OR NO CLOUDS BELOW 12000 FEET WITH NO
SIGNIFICANT WEATHER AND/OR OBSTRUCTIONS TO VISIBILITY.

* THESE STATIONS ARE NOT UNDER NWS QUALITY CONTROL. THEY DO NOT
   REPORT WEATHER SUCH AS PRECIPITATION OR FOG.

MTZ001>007-043-272300-
WEST OF THE DIVIDE
CITY           SKY/WX    TMP DP  RH WIND       PRES   REMARKS
KALISPELL      LGT SNOW  30  27  89 S12       30.00F VSB 3    WCI  20
MISSOULA       CLOUDY    27  23  85 W6        30.06F WCI  20
BUTTE          CLOUDY    25  10  53 SW10      29.98F WCI  15
MULLAN PASS    SNOW      23  19  85 VRB5      29.89F VSB 1/2  WCI  16
* ESSEX        N/A       26  23  88 N1         N/A
* HAMILTON APT PTSUNNY   32  19  59 S20       30.03F WCI  20
* LIBBY APT    CLOUDY    28  25  89 CALM      30.00F VSB 2 1/2
* LINCOLN      N/A       26  20  78 W5G11      N/A   WCI  20
* LOOKOUT PASS N/A       25  22  88 S4G10      N/A
* POLSON       N/A       29  27  92 S1         N/A
* RONAN APT    CLOUDY    30  27  89 SW7        N/A   WCI  23
* SEELEY LAKE  N/A       29  24  82 S2         N/A
* THOMP F APT  CLOUDY    13   7  77 SE3G9      N/A
$$

MTZ008-052>055-272300-
SOUTHWEST MONTANA
CITY           SKY/WX    TMP DP  RH WIND       PRES   REMARKS
BOZEMAN        CLOUDY    21  18  88 S6        30.05S WCI  13
DILLON         CLOUDY    21  10  62 S13       30.04F WCI   8
* W YELLOWSTON PTSUNNY   14   9  80 SW3G12     N/A
* THREE FORKS  PTCLDY    27  19  72 S13G33     N/A   WCI  16
* BOULDER HILL N/A       23   8  52 S16        N/A   WCI  10
* MONIDA PASS  N/A        9   7  91 SE21G26    N/A   WCI -11
* RAYNOLDS PAS N/A       12  -1  56 SE9G16     N/A
* WHITEHALL    N/A       26  10  51 SW17G29    N/A   WCI  13
* WISE RIVER   N/A       25  10  53 NW10G19    N/A   WCI  15
$$

MTZ009>010-012-014-046-048-049-054-272300-
EAST SLOPES AND CENTRAL MONTANA
CITY           SKY/WX    TMP DP  RH WIND       PRES   REMARKS
CUT BANK       PTCLDY    28  19  69 W10       29.86F WCI  19
GREAT FALLS    PTCLDY    28  18  66 SW17      29.91F WCI  16
HELENA         PTSUNNY   27  18  69 SE8       29.99F WCI  19
MALMSTROM AFB  PTCLDY    28  21  75 SW20      29.94F WCI  15
* CONRAD       PTCLDY    34  21  59 CALM       N/A
* DEARBORN     N/A       32  17  54 VRB2G9     N/A
* EAST GLACIER N/A       25  16  69 W20G26     N/A   WCI  11
* MONARCH      N/A       23  10  57 SW20G26    N/A   WCI   8
* PENDROY      N/A       28  15  58 W14G19     N/A   WCI  17
* SWEET GRASS  N/A       30  17  58 W4         N/A
* WHITE SULPH  N/A       23  12  63 S12G21     N/A   WCI  11
$$

MTZ011-013-016-021-035-040-045-047-050-051-272300-
NORTH CENTRAL MONTANA
CITY           SKY/WX    TMP DP  RH WIND       PRES   REMARKS
HAVRE          CLOUDY    30  21  69 SW17      29.92F WCI  18
* N BAR RANCH  CLOUDY    27  14  58 W9        29.92S WCI  18
* CHINOOK      PTSUNNY   34  18  52 SW9       29.93F WCI  27
* CHESTER      N/A       30  18  61 SW4        N/A
* DENTON       N/A       30  18  61 SW8        N/A   WCI  22
* JUDITH GAP   N/A       24  13  63 SW21G27    N/A   WCI   9
* LOMA         N/A       33  22  64 SW6G11     N/A   WCI  27
$$

MTZ017>020-022>027-061-062-272300-
NORTHEAST MONTANA
CITY           SKY/WX    TMP DP  RH WIND       PRES   REMARKS
GLASGOW        CLOUDY    30  18  61 SW5       29.95F WCI  25
GLENDIVE       PTSUNNY   28  18  66 W9        29.99R WCI  19
JORDAN         SUNNY     30  19  64 SW10      29.96F WCI  21
SIDNEY         PTSUNNY   30  18  61 CALM      30.00S
WOLF POINT     CLOUDY    28  19  69 SW6       29.98F WCI  21
* BEAVER HILL  N/A       23  17  78 S7         N/A   WCI  15
* CIRCLE       N/A       31  20  64 SW7G12     N/A   WCI  24
* LINDSAY DVD  N/A       28  17  63 SW10       N/A   WCI  19
* NAVAJO       N/A       23  19  85 NW5        N/A   WCI  16
* PLENTYWOOD A CLOUDY    21  18  88 NW5       29.96R VSB 3    WCI  14
* POPLAR APT   CLOUDY   N/A N/A N/A S3        29.98S
* SACO         N/A       31  21  66 S7         N/A   WCI  24
$$

MTZ028>042-056>058-272300-
SOUTHCENTRAL AND SOUTHEAST MONTANA
CITY           SKY/WX    TMP DP  RH WIND       PRES   REMARKS
BAKER          CLOUDY    27  16  63 W15       29.99S WCI  15
BILLINGS       PTSUNNY   25  14  63 SW18G24   29.99F WCI  11
LIVINGSTON     CLOUDY    27   9  46 SW31G41   29.97S WCI  11
MILES CITY     CLOUDY    28  21  75 SW7       30.00F WCI  21
* BIG TIMBER A PTCLDY    27  10  49 W24G33    29.96F WCI  12
* FORSYTH APT  PTCLDY    28  21  75 SW8       30.01S WCI  20
* LAUREL APT   SUNNY     25  12  58 N/A        N/A
* ROUNDUP APT  SUNNY     28  16  61 SW9        N/A   WCI  19
* ALZADA       N/A       27  15  61 SW9        N/A   WCI  18
* REED POINT   N/A       30  16  56 W9G14      N/A   WCI  22
* ROSCOE HILL  N/A       25  -2  30 VRB6       N/A   WCI  18
$$

REGIONAL REPORTS...DAKOTAS
CITY           SKY/WX    TMP DP  RH WIND       PRES   REMARKS
WILLISTON      CLOUDY    25  16  69 W8        29.98R WCI  16
DICKINSON      PTCLDY    27  16  63 W13       29.95R WCI  16
BEACH          PTSUNNY   23  18  81 SW10      29.98R WCI  13
CROSBY         CLOUDY    18  16  92 NW15      30.00R WCI   4
TIOGA          PTCLDY    18  18 100 NW8       29.97R WCI   8
WATFORD CITY   SUNNY     27  16  63 W8        29.95S WCI  19
BISMARCK       PTSUNNY   28  18  66 W13       29.99R WCI  17
GRAND FORKS    CLOUDY    19  16  88 SW6       30.02S WCI  11
FARGO          CLOUDY    27  19  72 SW7       30.03F WCI  19
BUFFALO SD     CLOUDY    30  16  56 W17       29.93R WCI  18
RAPID CITY     PTCLDY    21  14  74 CALM      30.02F
$$

REGIONAL REPORTS...WYOMING/IDAHO/WASHINGTON
CITY           SKY/WX    TMP DP  RH WIND       PRES   REMARKS
GILLETTE       PTSUNNY   21  10  62 SW7       30.00R WCI  12
SHERIDAN       CLOUDY    21  10  62 S6        30.01R WCI  13
CODY           PTCLDY    21  12  68 N5        29.98R WCI  14
YELLOWSTONE LA PTCLDY    10   5  80 VRB5      30.04S WCI   1
SALMON         CLOUDY    23  10  57 CALM      30.16F
MULLAN PASS    SNOW      23  19  85 VRB5      29.89S VSB 1/2  WCI  16
SAND POINT     SNOW      32  32 100 CALM      30.01F VSB 1/2
SPOKANE        LGT SNOW  34  30  85 S14G21    29.95F VSB 3/4  WCI  24
$$

REGIONAL REPORTS...ALBERTA
CITY           SKY/WX    TMP DP  RH WIND       PRES   REMARKS
CALGARY        PTSUNNY   30  12  47 VRB2      29.81F
LETHBRIDGE     PTSUNNY   32  21  64 W16       29.85F WCI  21
MEDICINE HAT   PTSUNNY   30  23  75 W3        29.89F
EDMONTON       FOG       19  16  88 NE7       29.91S WCI  10
WATERTON GATE  N/A       28  18  66 SW20G29    N/A   WCI  15
CARDSTON       N/A       32  18  56 W8         N/A   WCI  25
MILK RIVER     N/A       27  18  69 CALM       N/A
$$

REGIONAL REPORTS...SASKATCHEWAN
CITY           SKY/WX    TMP DP  RH WIND       PRES   REMARKS
SWIFT CURRENT  CLOUDY    16  14  92 E10       29.91R WCI   4
REGINA         LGT SNOW  12   7  80 NE7       30.01R WCI   1
VAL MARIE      N/A       25  21  85 S6         N/A   WCI  18
ASSINIBOIA     N/A       18  14  84 NE7        N/A   WCI   9

$$




USA.gov is the U.S. government's official web portal to all federal, state and local government web resources and services.